FW0727 Weather Reports


Display with metric or nautical units.
time (UTC)temp
F
wind
direction
speed
MPH
gust
MPH
rain 1hr
in
rain 24hr
in
rain mn
in
humidity
%
barometer
mb
20260504002311 40 0.0 0.0 0.00 0.00 0.00 49 1017.1
20260504001727 41 0.0 0.0 0.00 0.00 0.00 49 1017.0
20260504001143 41 0.0 0.0 0.00 0.00 0.00 49 1017.0
20260504000558 41 0.0 0.0 0.00 0.00 0.00 49 1017.0
20260504000013 41 0.0 0.0 0.00 0.00 0.00 49 1017.1
20260503235425 41 0.0 0.0 0.00 0.00 0.00 48 1017.2
20260503234833 41 0.0 0.0 0.00 0.00 0.00 48 1017.2
20260503234249 41 0.0 0.0 0.00 0.00 0.00 48 1017.2
20260503233705 41 0.0 0.0 0.00 0.00 0.00 48 1017.2
20260503232551 42 0.0 0.0 0.00 0.00 0.00 48 1017.3
20260503232007 42 0.0 0.0 0.00 0.00 0.00 48 1017.3
20260503231423 42 0.0 0.0 0.00 0.00 0.00 47 1017.4
20260503230838 42 0.0 0.0 0.00 0.00 0.00 47 1017.4
20260503230254 42 0.0 0.0 0.00 0.00 0.00 47 1017.4
20260503225710 42 0.0 0.0 0.00 0.00 0.00 47 1017.5
20260503225117 42 0.0 0.0 0.00 0.00 0.00 47 1017.5
20260503224533 42 0.0 0.0 0.00 0.00 0.00 47 1017.6
20260503223411 43 0.0 0.0 0.00 0.00 0.00 46 1017.8
20260503222827 43 0.0 0.0 0.00 0.00 0.00 46 1017.8
20260503222243 43 0.0 0.0 0.00 0.00 0.00 46 1017.9
20260503221650 43 0.0 0.0 0.00 0.00 0.00 46 1017.9
20260503221057 43 0.0 0.0 0.00 0.00 0.00 46 1018.0
20260503215945 44 0.0 0.0 0.00 0.00 0.00 46 1018.2
20260503215401 44 0.0 0.0 0.00 0.00 0.00 45 1018.3
20260503214808 44 0.0 0.0 0.00 0.00 0.00 45 1018.3
20260503214222 44 0.0 0.0 0.00 0.00 0.00 45 1018.3
20260503213638 44 0.0 0.0 0.00 0.00 0.00 45 1018.4
20260503213045 44 0.0 0.0 0.00 0.00 0.00 45 1018.4
20260503211924 45 0.0 0.0 0.00 0.00 0.00 44 1018.5
20260503210802 45 0.0 0.0 0.00 0.00 0.00 43 1018.5
20260503210218 45 0.0 0.0 0.00 0.00 0.00 43 1018.5
20260503205626 46 0.0 0.0 0.00 0.00 0.00 43 1018.6
20260503205034 45 0.0 0.0 0.00 0.00 0.00 43 1018.6
20260503204449 45 0.0 0.0 0.00 0.00 0.00 44 1018.6
20260503203904 46 0.0 0.0 0.00 0.00 0.00 43 1018.6
20260503203319 46 0.0 0.0 0.00 0.00 0.00 43 1018.7
20260503202735 46 0.0 0.0 0.00 0.00 0.00 42 1018.7
20260503202150 46 0.0 0.0 0.00 0.00 0.00 42 1018.7
20260503201605 46 0.0 0.0 0.00 0.00 0.00 42 1018.7
20260503195924 47 0.0 0.0 0.00 0.00 0.00 41 1018.8
20260503195339 47 0.0 0.0 0.00 0.00 0.00 41 1018.8
20260503194753 47 0.0 0.0 0.00 0.00 0.00 40 1018.9
20260503194206 48 0.0 0.0 0.00 0.00 0.00 40 1018.8
20260503193046 48 0.0 0.0 0.00 0.00 0.00 39 1018.7
20260503192501 48 0.0 0.0 0.00 0.00 0.00 39 1018.7
20260503191349 48 0.0 0.0 0.00 0.00 0.00 38 1018.7
20260503190756 49 0.0 0.0 0.00 0.00 0.00 38 1018.6
20260503190212 49 0.0 0.0 0.00 0.00 0.00 38 1018.6
20260503185627 49 0.0 0.0 0.00 0.00 0.00 37 1018.6
20260503185042 50 0.0 0.0 0.00 0.00 0.00 36 1018.6
20260503184457 50 0.0 0.0 0.00 0.00 0.00 37 1018.6
20260503183913 50 0.0 0.0 0.00 0.00 0.00 37 1018.5
20260503183328 50 0.0 0.0 0.00 0.00 0.00 37 1018.5
20260503182743 50 0.0 0.0 0.00 0.00 0.00 36 1018.5
20260503182159 51 0.0 0.0 0.00 0.00 0.00 35 1018.5
20260503181614 51 0.0 0.0 0.00 0.00 0.00 35 1018.5
20260503181028 51 0.0 0.0 0.00 0.00 0.00 35 1018.4
20260503180444 51 0.0 0.0 0.00 0.00 0.00 34 1018.4
20260503175859 51 0.0 0.0 0.00 0.00 0.00 34 1018.3
20260503175314 52 0.0 0.0 0.00 0.00 0.00 34 1018.3
20260503174730 52 0.0 0.0 0.00 0.00 0.00 34 1018.2
20260503173617 53 0.0 0.0 0.00 0.00 0.00 32 1018.0
20260503173032 53 0.0 0.0 0.00 0.00 0.00 32 1018.0
20260503172448 53 0.0 0.0 0.00 0.00 0.00 32 1018.0
20260503171903 54 0.0 0.0 0.00 0.00 0.00 30 1017.9
20260503171318 54 0.0 0.0 0.00 0.00 0.00 31 1017.9
20260503170734 55 0.0 0.0 0.00 0.00 0.00 30 1017.8
20260503170150 55 0.0 0.0 0.00 0.00 0.00 29 1017.7
20260503150644 59 0.0 0.0 0.00 0.00 0.00 25 1017.7
20260503131140 59 0.0 0.0 0.00 0.00 0.00 24 1019.0
20260503130548 59 0.0 0.0 0.00 0.00 0.00 25 1019.0
20260503081056 54 0.0 0.0 0.00 0.00 0.00 25 1021.9
20260503072406 54 0.0 0.0 0.00 0.00 0.00 28 1021.9
20260503071244 53 0.0 0.0 0.00 0.00 0.00 29 1021.9
20260503070652 53 0.0 0.0 0.00 0.00 0.00 29 1021.9
20260503060240 51 0.0 0.0 0.00 0.00 0.00 36 1022.0
20260503055055 51 0.0 0.0 0.00 0.00 0.00 39 1021.9
20260503054502 51 0.0 0.0 0.00 0.00 0.00 41 1022.0
20260503053910 50 0.0 0.0 0.00 0.00 0.00 42 1022.0
20260503053325 48 0.0 0.0 0.00 0.00 0.00 43 1022.0
20260503052740 48 0.0 0.0 0.00 0.00 0.00 44 1022.0
20260503052155 47 0.0 0.0 0.00 0.00 0.00 45 1022.0
20260503051609 46 0.0 0.0 0.00 0.00 0.00 45 1022.1
20260503051017 46 0.0 0.0 0.00 0.00 0.00 47 1022.0
20260503050425 45 0.0 0.0 0.00 0.00 0.00 47 1022.0
20260503045829 44 0.0 0.0 0.00 0.00 0.00 47 1022.0
20260503045237 43 0.0 0.0 0.00 0.00 0.00 47 1022.0
20260503044645 43 0.0 0.0 0.00 0.00 0.00 48 1021.9
20260503043524 41 0.0 0.0 0.00 0.00 0.00 50 1021.9
20260503042403 40 0.0 0.0 0.00 0.00 0.00 51 1021.8
20260503041239 38 0.0 0.0 0.00 0.00 0.00 52 1021.8
20260503040646 38 0.0 0.0 0.00 0.00 0.00 53 1021.8
20260503040053 38 0.0 0.0 0.00 0.00 0.00 54 1021.8
20260503035500 37 0.0 0.0 0.00 0.00 0.00 54 1021.8
20260503033809 37 0.0 0.0 0.00 0.00 0.00 55 1021.7
20260503033224 37 0.0 0.0 0.00 0.00 0.00 55 1021.6
20260503032110 37 0.0 0.0 0.00 0.00 0.00 55 1021.5
20260503031526 37 0.0 0.0 0.00 0.00 0.00 55 1021.5
20260503030934 37 0.0 0.0 0.00 0.00 0.00 55 1021.5
20260503030343 37 0.0 0.0 0.00 0.00 0.00 55 1021.5
20260503025751 37 0.0 0.0 0.00 0.00 0.00 55 1021.5
20260503025159 37 0.0 0.0 0.00 0.00 0.00 55 1021.4
20260503024037 37 0.0 0.0 0.00 0.00 0.00 55 1021.4
20260503022347 37 0.0 0.0 0.00 0.00 0.00 55 1021.4
20260503021756 38 0.0 0.0 0.00 0.00 0.00 55 1021.4
20260503020634 38 0.0 0.0 0.00 0.00 0.00 55 1021.4
20260503020050 38 0.0 0.0 0.00 0.00 0.00 55 1021.4
20260503015507 38 0.0 0.0 0.00 0.00 0.00 55 1021.4
20260503014346 38 0.0 0.0 0.00 0.00 0.00 55 1021.4
20260503013801 38 0.0 0.0 0.00 0.00 0.00 54 1021.3
20260503013218 38 0.0 0.0 0.00 0.00 0.00 55 1021.3
20260503012625 38 0.0 0.0 0.00 0.00 0.00 55 1021.3
20260503011504 39 0.0 0.0 0.00 0.00 0.00 54 1021.4
20260503010912 39 0.0 0.0 0.00 0.00 0.00 54 1021.4
20260503010320 39 0.0 0.0 0.00 0.00 0.00 54 1021.4
20260503005735 39 0.0 0.0 0.00 0.00 0.00 54 1021.4
20260503005151 39 0.0 0.0 0.00 0.00 0.00 54 1021.4
20260503004606 39 0.0 0.0 0.00 0.00 0.00 55 1021.4
20260503002920 39 0.0 0.0 0.00 0.00 0.00 54 1021.3